This is the latest recevied weather packets stored in our database for station/object K9NZF-1. If no packets are shown the sender has not sent any weather packets the latest 1 day(s).
| Time | Temp. | Humidity | Pressure | Rain* | Wind** | Luminosity | Snow |
|---|---|---|---|---|---|---|---|
| 1778093897 | 12.22° C | 63% | 1013 hPa | 0 mm | - | 257 W/m² | - |
| 1778093714 | 12.22° C | 64% | 1013 hPa | 0 mm | - | 241 W/m² | - |
| 1778093592 | 12.22° C | 63% | 1012.9 hPa | 0 mm | - | 243 W/m² | - |
| 1778093407 | 12.22° C | 66% | 1012.9 hPa | 0 mm | - | 241 W/m² | - |
| 1778093166 | 12.22° C | 65% | 1012.9 hPa | 0 mm | - | 251 W/m² | - |
| 1778093046 | 12.22° C | 65% | 1012.9 hPa | 0 mm | - | 274 W/m² | - |
| 1778092681 | 11.67° C | 63% | 1013 hPa | 0 mm | - | 258 W/m² | - |
| 1778092501 | 11.67° C | 66% | 1013 hPa | 0 mm | - | 265 W/m² | - |
| 1778092320 | 11.67° C | 61% | 1013 hPa | 0 mm | - | 329 W/m² | - |
| 1778092198 | 11.67° C | 65% | 1013 hPa | 0 mm | - | 338 W/m² | - |
| 1778092077 | 11.67° C | 63% | 1013.1 hPa | 0 mm | - | 330 W/m² | - |
| 1778092018 | 11.67° C | 63% | 1013.1 hPa | 0 mm | - | 311 W/m² | - |
| 1778091898 | 11.67° C | 64% | 1013.1 hPa | 0 mm | - | 295 W/m² | - |
| 1778091237 | 11.67° C | 62% | 1013.1 hPa | 0 mm | - | 200 W/m² | - |
| 1778090929 | 11.67° C | 62% | 1013.1 hPa | 0 mm | - | 221 W/m² | - |
| 1778090626 | 11.67° C | 60% | 1013.1 hPa | 0 mm | - | 190 W/m² | - |
| 1778090561 | 11.67° C | 62% | 1013.1 hPa | 0 mm | - | 186 W/m² | - |
| 1778090500 | 11.67° C | 61% | 1013 hPa | 0 mm | - | 183 W/m² | - |
| 1778090378 | 11.67° C | 67% | 1013.2 hPa | 0 mm | - | 174 W/m² | - |
| 1778090014 | 11.67° C | 64% | 1013.1 hPa | 0 mm | - | 162 W/m² | - |
| 1778089953 | 11.67° C | 60% | 1013 hPa | 0 mm | - | 167 W/m² | - |
| 1778089711 | 11.67° C | 61% | 1012.9 hPa | 0 mm | - | 181 W/m² | - |
| 1778089345 | 11.67° C | 63% | 1012.9 hPa | 0 mm | - | 230 W/m² | - |
| 1778089225 | 11.67° C | 64% | 1013 hPa | 0 mm | - | 241 W/m² | - |
| 1778088864 | 11.67° C | 65% | 1012.9 hPa | 0 mm | - | 225 W/m² | - |
* Rain latest hour (hover to see other rain measurements)
** Current wind speed in m/s (hover to see current wind gust speed)